map of GPS home
GPS - Airport
Location
City:  Baltra, Baltra Island, Galápagos Islands, Ecuador
Near (Alt.):Seymour
ICAO:SEGS
IATA:GPS

Details
Type:Airport (Aerodrome, Airfield)
Use:Public/Civil, Military
Latitude:0°27'14"S (-0.453757)
Longitude:90°15'57"W (-90.265913)
Datum:WGS 1984
Elevation:207 ft (63 m)
Variation:3.61°E (WMM2015 magnetic declination)
-0.13° annual change
Runways:1
Longest:7876 × 115 ft (2401 × 35 m), paved

Time
Time Zone:UTC-6
Local Time:

Weather
METAR:SEGS 190000Z 13009KT 9999 BKN020 27/22 Q1010 RMK A2983

Related Locations
Nearby:
Farthest:WITG: 11974 mi / 19270 km
Sinabang, AC, ID

Find:

   beyond  
but within

Other Information
Maps:
NOTAMs:
Links:
Sources:

  
flag of Ecuador
flag of Galápagos Islands
  

Sectional Chart

Flight Planning
at skyvector.com

Satellite Image

Google Maps Satellite view

 

Copyright © 2004-2017 Karl L. Swartz. All rights reserved.
The Great Circle Mapper name and logo are trademarks of the Great Circle Mapper.
All other trademarks mentioned herein belong to their respective owners.
Please see credits for attibutions and further copyright information.

  Follow gcmap on Facebook Follow gcmap on Twitter Follow gcmap on Google+ GCmap on LinkedIn

hCard Microformat

Geo Microformat